• In Romania
  • List of Countries
  • For 7 days
  • Water Temperature
  • Satellite Maps
  • Weather Map
  • Weather Widgets
  • user-avatar
    Login

    Hourly Weather Canillo

    Today, 24 July, Monday

    Time Temperature Precipitation Wind Pressure Humidity
    00:00 +11°C° 0 mm 1 mps 621 mmHg 94%
    01:00 +10°C° 0.1 mm 1 mps 621 mmHg 95%
    02:00 +10°C° 0.1 mm 1 mps 621 mmHg 95%
    03:00 +10°C° 0.1 mm 1 mps 620 mmHg 95%
    04:00 +9°C° 0 mm 2 mps 621 mmHg 93%
    05:00 +10°C° 0 mm 2 mps 621 mmHg 91%
    06:00 +10°C° 0 mm 2 mps 621 mmHg 89%
    07:00 +12°C° 0 mm 2 mps 621 mmHg 79%
    08:00 +13°C° 0 mm 3 mps 622 mmHg 69%
    09:00 +16°C° 0 mm 3 mps 623 mmHg 60%
    10:00 +17°C° 0 mm 3 mps 623 mmHg 55%
    11:00 +17°C° 0 mm 4 mps 623 mmHg 51%
    12:00 +18°C° 0 mm 4 mps 624 mmHg 47%
    13:00 +18°C° 0 mm 4 mps 624 mmHg 47%
    14:00 +18°C° 0 mm 4 mps 623 mmHg 46%
    15:00 +19°C° 0 mm 4 mps 623 mmHg 46%
    16:00 +17°C° 0 mm 4 mps 623 mmHg 51%
    17:00 +15°C° 0 mm 4 mps 623 mmHg 55%
    18:00 +14°C° 0 mm 4 mps 622 mmHg 60%
    19:00 +12°C° 0.1 mm 3 mps 622 mmHg 68%
    20:00 +10°C° 0.1 mm 3 mps 622 mmHg 75%
    21:00 +9°C° 0.1 mm 3 mps 621 mmHg 83%
    22:00 +8°C° 0 mm 3 mps 621 mmHg 83%
    23:00 +7°C° 0 mm 3 mps 621 mmHg 83%

    Tomorrow, 25 July, Tuesday

    Time Temperature Precipitation Wind Pressure Humidity
    00:00 +7°C° 0 mm 3 mps 621 mmHg 83%
    01:00 +5°C° 0 mm 3 mps 620 mmHg 81%
    02:00 +5°C° 0 mm 3 mps 620 mmHg 79%
    03:00 +4°C° 0 mm 3 mps 619 mmHg 77%
    04:00 +5°C° 0 mm 3 mps 619 mmHg 75%
    05:00 +7°C° 0 mm 3 mps 620 mmHg 72%
    06:00 +7°C° 0 mm 3 mps 620 mmHg 70%
    07:00 +9°C° 0 mm 3 mps 621 mmHg 64%
    08:00 +11°C° 0 mm 3 mps 622 mmHg 57%
    09:00 +14°C° 0 mm 3 mps 622 mmHg 51%
    10:00 +16°C° 0 mm 3 mps 623 mmHg 47%
    11:00 +17°C° 0 mm 3 mps 623 mmHg 44%
    12:00 +18°C° 0 mm 3 mps 623 mmHg 41%
    13:00 +18°C° 0 mm 4 mps 623 mmHg 41%
    14:00 +18°C° 0 mm 4 mps 622 mmHg 41%
    15:00 +18°C° 0 mm 4 mps 622 mmHg 42%
    16:00 +17°C° 0 mm 4 mps 622 mmHg 48%
    17:00 +16°C° 0 mm 3 mps 621 mmHg 53%
    18:00 +14°C° 0 mm 3 mps 620 mmHg 59%
    19:00 +12°C° 0.1 mm 3 mps 620 mmHg 68%
    20:00 +10°C° 0.1 mm 3 mps 620 mmHg 77%
    21:00 +8°C° 0.1 mm 3 mps 619 mmHg 85%
    22:00 +8°C° 0 mm 3 mps 619 mmHg 86%
    23:00 +8°C° 0 mm 2 mps 619 mmHg 87%

    Day after tomorrow, 26 July, Wednesday

    Time Temperature Precipitation Wind Pressure Humidity
    00:00 +7°C° 0 mm 2 mps 619 mmHg 87%
    01:00 +7°C° 0 mm 2 mps 619 mmHg 87%
    02:00 +7°C° 0 mm 2 mps 618 mmHg 86%
    03:00 +6°C° 0 mm 2 mps 618 mmHg 86%
    04:00 +7°C° 0 mm 2 mps 618 mmHg 82%
    05:00 +7°C° 0 mm 2 mps 619 mmHg 79%
    06:00 +7°C° 0 mm 2 mps 619 mmHg 75%
    07:00 +10°C° 0 mm 2 mps 620 mmHg 66%
    08:00 +13°C° 0 mm 2 mps 621 mmHg 56%
    09:00 +16°C° 0 mm 2 mps 622 mmHg 47%
    10:00 +17°C° 0 mm 2 mps 622 mmHg 44%
    11:00 +18°C° 0 mm 3 mps 622 mmHg 42%
    12:00 +19°C° 0 mm 3 mps 623 mmHg 39%
    13:00 +20°C° 0 mm 3 mps 623 mmHg 40%
    14:00 +20°C° 0 mm 3 mps 622 mmHg 41%
    15:00 +20°C° 0 mm 3 mps 622 mmHg 42%
    16:00 +19°C° 0 mm 3 mps 622 mmHg 48%
    17:00 +18°C° 0 mm 3 mps 621 mmHg 53%
    18:00 +17°C° 0 mm 3 mps 621 mmHg 58%
    19:00 +15°C° 0 mm 2 mps 621 mmHg 67%
    20:00 +13°C° 0 mm 2 mps 620 mmHg 75%
    21:00 +10°C° 0 mm 2 mps 620 mmHg 84%
    22:00 +10°C° 0 mm 2 mps 620 mmHg 83%
    23:00 +10°C° 0 mm 2 mps 620 mmHg 82%

    27 July, Thursday

    Time Temperature Precipitation Wind Pressure Humidity
    00:00 +9°C° 0 mm 2 mps 619 mmHg 81%
    01:00 +9°C° 0 mm 2 mps 619 mmHg 79%
    02:00 +10°C° 0 mm 1 mps 619 mmHg 77%
    03:00 +10°C° 0 mm 1 mps 619 mmHg 75%
    04:00 +11°C° 0 mm 1 mps 619 mmHg 73%
    05:00 +11°C° 0 mm 1 mps 620 mmHg 71%
    06:00 +12°C° 0 mm 1 mps 620 mmHg 69%
    07:00 +15°C° 0 mm 1 mps 621 mmHg 61%
    08:00 +18°C° 0 mm 1 mps 622 mmHg 53%
    09:00 +21°C° 0 mm 1 mps 623 mmHg 45%
    10:00 +22°C° 0 mm 1 mps 623 mmHg 43%
    11:00 +23°C° 0 mm 2 mps 624 mmHg 40%
    12:00 +25°C° 0 mm 2 mps 624 mmHg 37%
    13:00 +24°C° 0 mm 2 mps 624 mmHg 39%
    14:00 +24°C° 0 mm 2 mps 623 mmHg 40%
    15:00 +24°C° 0 mm 2 mps 623 mmHg 41%
    16:00 +23°C° 0 mm 2 mps 623 mmHg 46%
    17:00 +21°C° 0 mm 2 mps 622 mmHg 52%
    18:00 +20°C° 0 mm 2 mps 622 mmHg 57%
    19:00 +19°C° 0 mm 1 mps 622 mmHg 65%
    20:00 +16°C° 0 mm 1 mps 621 mmHg 72%
    21:00 +14°C° 0 mm 1 mps 621 mmHg 80%
    22:00 +14°C° 0 mm 1 mps 621 mmHg 82%
    23:00 +13°C° 0 mm 1 mps 621 mmHg 83%

    28 July, Friday

    Time Temperature Precipitation Wind Pressure Humidity
    00:00 +13°C° 0 mm 1 mps 621 mmHg 84%
    01:00 +13°C° 0 mm 1 mps 621 mmHg 85%
    02:00 +12°C° 0 mm 1 mps 621 mmHg 85%
    03:00 +12°C° 0 mm 1 mps 621 mmHg 86%
    04:00 +13°C° 0 mm 1 mps 621 mmHg 83%
    05:00 +13°C° 0 mm 1 mps 622 mmHg 80%
    06:00 +14°C° 0 mm 1 mps 622 mmHg 77%
    07:00 +16°C° 0 mm 1 mps 623 mmHg 68%
    08:00 +18°C° 0 mm 2 mps 624 mmHg 59%
    09:00 +21°C° 0 mm 2 mps 625 mmHg 50%
    10:00 +22°C° 0 mm 3 mps 625 mmHg 47%
    11:00 +24°C° 0 mm 3 mps 626 mmHg 44%
    12:00 +25°C° 0 mm 3 mps 626 mmHg 42%
    13:00 +25°C° 0 mm 3 mps 626 mmHg 42%
    14:00 +25°C° 0 mm 3 mps 625 mmHg 43%
    15:00 +25°C° 0 mm 3 mps 625 mmHg 44%
    16:00 +22°C° 0 mm 3 mps 625 mmHg 49%
    17:00 +21°C° 0 mm 2 mps 624 mmHg 55%
    18:00 +20°C° 0 mm 2 mps 624 mmHg 60%
    19:00 +19°C° 0 mm 1 mps 624 mmHg 68%
    20:00 +16°C° 0 mm 1 mps 623 mmHg 77%
    21:00 +13°C° 0 mm 0 mps 623 mmHg 85%
    22:00 +14°C° 0 mm 1 mps 622 mmHg 85%
    23:00 +14°C° 0 mm 1 mps 622 mmHg 85%

    29 July, Saturday

    Time Temperature Precipitation Wind Pressure Humidity
    00:00 +13°C° 0 mm 1 mps 622 mmHg 86%
    01:00 +13°C° 0 mm 1 mps 622 mmHg 85%
    02:00 +13°C° 0 mm 1 mps 622 mmHg 84%
    03:00 +13°C° 0 mm 1 mps 621 mmHg 83%
    04:00 +14°C° 0 mm 1 mps 622 mmHg 80%
    05:00 +14°C° 0 mm 1 mps 622 mmHg 76%
    06:00 +15°C° 0 mm 1 mps 623 mmHg 73%
    07:00 +18°C° 0 mm 1 mps 624 mmHg 63%
    08:00 +20°C° 0 mm 2 mps 625 mmHg 54%
    09:00 +23°C° 0 mm 2 mps 626 mmHg 44%
    10:00 +24°C° 0 mm 2 mps 626 mmHg 42%
    11:00 +25°C° 0 mm 2 mps 626 mmHg 41%
    12:00 +25°C° 0 mm 2 mps 626 mmHg 39%
    13:00 +25°C° 0.3 mm 2 mps 626 mmHg 39%
    14:00 +25°C° 0.3 mm 2 mps 626 mmHg 39%
    15:00 +25°C° 0.3 mm 3 mps 626 mmHg 39%
    16:00 +24°C° 0.4 mm 2 mps 625 mmHg 45%
    17:00 +23°C° 0.4 mm 2 mps 625 mmHg 51%
    18:00 +22°C° 0.4 mm 1 mps 624 mmHg 57%
    19:00 +20°C° 0.2 mm 1 mps 624 mmHg 63%
    20:00 +18°C° 0.2 mm 1 mps 623 mmHg 68%
    21:00 +15°C° 0.2 mm 1 mps 623 mmHg 74%
    22:00 +14°C° 0 mm 1 mps 623 mmHg 74%
    23:00 +14°C° 0 mm 1 mps 622 mmHg 75%
    Show more